This is the latest recevied weather packets stored in our database for station/object K2CCS. If no packets are shown the sender has not sent any weather packets the latest 10 day(s).
| Time | Temp. | Humidity | Pressure | Rain* | Wind** | Luminosity | Snow |
|---|---|---|---|---|---|---|---|
| 1778002093 | 26.67° C | 43% | 1007.5 hPa | 0 mm | - | 199 W/m² | - |
| 1778001790 | 27.78° C | 42% | 1007.7 hPa | 0 mm | - | 744 W/m² | - |
| 1778001485 | 27.78° C | 42% | 1007.7 hPa | 0 mm | - | 365 W/m² | - |
| 1778001182 | 27.22° C | 42% | 1007.6 hPa | 0 mm | - | 713 W/m² | - |
| 1778000878 | 27.22° C | 43% | 1007.7 hPa | 0 mm | - | 615 W/m² | - |
| 1778000575 | 27.22° C | 43% | 1007.8 hPa | 0 mm | - | 468 W/m² | - |
| 1778000276 | 26.67° C | 44% | 1007.6 hPa | 0 mm | - | 705 W/m² | - |
| 1777999972 | 26.67° C | 44% | 1007.9 hPa | 0 mm | - | 737 W/m² | - |
| 1777999668 | 26.67° C | 44% | 1008 hPa | 0 mm | - | 316 W/m² | - |
| 1777999365 | 26.67° C | 45% | 1008.2 hPa | 0 mm | - | 729 W/m² | - |
| 1777999063 | 25.56° C | 46% | 1008.2 hPa | 0 mm | - | 725 W/m² | - |
| 1777998762 | 25.56° C | 47% | 1008.3 hPa | 0 mm | - | 698 W/m² | - |
| 1777998458 | 25.56° C | 46% | 1008.5 hPa | 0 mm | - | 712 W/m² | - |
| 1777998155 | 25° C | 47% | 1008.5 hPa | 0 mm | - | 691 W/m² | - |
| 1777997852 | 25° C | 48% | 1008.6 hPa | 0 mm | - | 689 W/m² | - |
| 1777997550 | 25° C | 48% | 1008.6 hPa | 0 mm | - | 701 W/m² | - |
| 1777997247 | 25° C | 47% | 1009.1 hPa | 0 mm | - | 688 W/m² | - |
| 1777996945 | 25° C | 47% | 1009.1 hPa | 0 mm | - | 720 W/m² | - |
| 1777996641 | 24.44° C | 48% | 1009.2 hPa | 0 mm | - | 725 W/m² | - |
| 1777996337 | 24.44° C | 50% | 1009.2 hPa | 0 mm | - | 714 W/m² | - |
| 1777996034 | 23.89° C | 49% | 1009.2 hPa | 0 mm | - | 734 W/m² | - |
| 1777995730 | 23.33° C | 51% | 1009.3 hPa | 0 mm | - | 727 W/m² | - |
| 1777995426 | 23.33° C | 51% | 1009.6 hPa | 0 mm | - | 716 W/m² | - |
| 1777995124 | 22.78° C | 52% | 1009.5 hPa | 0 mm | - | 551 W/m² | - |
| 1777994821 | 22.78° C | 53% | 1009.7 hPa | 0 mm | - | 642 W/m² | - |
* Rain latest hour (hover to see other rain measurements)
** Current wind speed in m/s (hover to see current wind gust speed)